Dewpoint
11 6 3 4 9 9 7 6 3 -3 1 -1 -0 -2 -3 1 29 33 32 31 32 32 33 34 34 34 34 34 34 34 34 34 34 33 33 34 34 35 37 38 39 41 43 45
11 9 9 8 9 9 8 7 2 -2 -3 -3 -3 -3 -3 -2 28 32 30 31 32 32 32 33 33 33 34 34 34 33 33 34 34 33 33 34 34 35 36 38 39 41 43 46
8 9 13 12 12 11 4 1 -2 -3 -3 -4 -5 -5 -6 29 30 30 31 31 31 31 32 32 32 33 33 33 33 33 33 33 34 33 33 34 35 35 35 37 38 40 42 43
9 10 10 11 11 9 5 4 1 -1 -3 -4 -1 -7 -2 29 28 29 30 30 30 31 32 32 31 32 33 33 32 33 33 33 33 33 33 33 33 33 35 36 38 39 41 42
10 12 12 11 9 7 4 8 4 4 1 -1 -3 -6 -1 28 27 28 29 30 30 31 31 31 31 32 33 32 31 32 33 33 33 33 34 34 33 34 35 37 38 39 41 42
12 14 12 11 10 8 7 2 3 3 1 -4 -2 -6 -2 13 26 28 29 30 30 30 30 31 32 33 32 29 30 31 32 32 33 33 34 34 34 34 35 36 38 40 41 44
13 12 13 10 7 5 3 1 -1 -1 -4 -6 2 -2 -6 25 27 28 29 29 30 30 30 31 32 32 29 28 30 30 31 32 32 33 34 34 35 35 36 37 39 40 42 44
13 13 13 11 9 6 3 3 2 -2 2 8 11 7 18 27 28 29 29 30 30 30 30 31 32 31 29 29 30 30 31 31 32 33 33 34 35 36 36 37 38 40 42 45
10 11 13 10 9 8 7 3 9 10 14 9 10 23 26 27 27 28 28 29 30 30 31 31 31 30 29 29 29 30 31 31 31 32 33 34 35 35 36 36 39 41 43 44
15 10 12 10 9 9 9 12 6 12 3 -1 4 16 18 25 26 28 28 28 29 29 30 30 31 29 30 30 30 30 30 30 31 32 32 33 35 35 36 37 37 39 41 44
16 17 12 9 9 8 6 6 13 13 11 5 6 9 25 26 27 27 28 28 29 28 30 29 29 29 30 30 30 29 29 30 30 31 32 32 34 35 35 36 36 38 41 43
17 19 12 8 11 9 8 9 13 12 11 15 13 14 28 28 28 29 29 28 29 28 29 29 28 27 29 29 28 28 28 29 29 30 31 32 33 33 34 34 35 37 39 41
21 21 13 14 12 13 9 9 10 19 21 14 12 16 28 28 29 29 28 28 29 28 28 28 27 26 27 27 27 27 27 29 28 29 30 30 32 31 32 33 34 36 38 39
22 22 16 14 16 16 10 10 10 14 12 12 13 24 27 28 28 29 28 28 27 27 27 27 25 25 26 26 27 27 27 28 28 28 29 29 30 30 31 32 33 35 36 36
21 17 17 19 22 23 22 21 15 13 15 13 14 21 28 28 28 28 28 27 27 26 26 26 24 25 25 25 26 26 27 26 27 28 28 29 29 29 30 30 31 32 34 35
28 19 24 18 21 23 22 25 23 18 14 17 19 23 29 30 30 29 28 27 26 25 25 24 24 26 25 24 24 25 27 25 26 27 28 29 28 28 28 29 29 30 32 33
25 25 23 22 25 26 24 26 25 21 18 18 15 22 28 28 29 29 28 26 25 24 24 23 23 24 23 23 24 24 24 25 26 28 29 30 28 27 26 27 27 28 30 32
24 24 23 22 24 17 20 21 24 18 13 23 27 28 28 29 31 28 27 25 24 23 22 22 23 23 22 23 23 24 23 24 25 28 29 29 29 27 26 26 26 27 29 30
25 25 24 21 21 19 17 14 12 12 13 27 28 28 29 29 27 26 26 25 22 22 21 22 23 22 22 22 23 23 23 23 25 27 28 28 29 27 25 24 25 26 27 28
26 29 26 24 19 15 17 17 19 19 15 29 28 28 29 29 24 26 26 23 21 21 21 21 22 22 22 23 23 23 23 23 24 27 26 27 29 28 25 24 24 25 25 26
26 27 23 23 19 16 23 19 20 15 19 29 28 29 28 24 26 26 23 21 21 20 21 21 21 21 21 22 23 22 22 24 26 26 26 27 28 28 26 24 23 24 24 25
23 23 22 23 20 17 24 20 17 26 29 30 29 28 28 27 26 23 22 20 20 20 20 19 19 19 19 21 23 21 22 24 26 25 25 27 27 28 27 25 24 24 24 24
19 20 20 21 20 27 30 28 31 29 30 30 29 28 27 26 24 22 21 20 20 19 19 19 18 17 19 20 21 21 22 24 26 25 25 26 27 27 28 25 24 24 24 23
20 24 22 18 27 28 31 31 32 31 30 29 28 27 26 25 24 21 20 20 20 19 18 19 16 17 18 19 21 21 23 24 25 25 25 25 26 26 26 26 25 24 23 23
21 22 25 31 31 30 29 29 30 29 29 28 28 27 25 24 23 21 20 19 18 16 17 19 17 18 18 19 20 21 23 24 25 24 25 26 27 26 26 26 26 24 24 26
27 23 23 26 31 29 30 29 28 27 26 25 24 23 24 25 22 21 20 17 16 17 19 17 18 18 19 19 20 21 23 24 25 23 24 25 25 25 25 25 21 21 22 23
Wind_Speed
4 6 16 21 15 16 9 10 11 5 5 8 17 13 13 3 22 17 11 13 15 15 9 13 17 15 14 15 19 20 21 21 21 23 25 25 25 24 20 19 22 25 25 24
5 20 23 15 14 17 20 21 16 1 5 5 6 9 12 10 14 16 15 12 13 11 13 16 18 18 18 17 17 20 20 19 18 18 21 21 24 19 23 22 21 21 26 25
21 17 12 19 19 17 12 6 5 5 2 1 3 7 17 7 16 12 11 12 11 13 14 15 15 14 14 18 19 19 21 19 18 22 20 21 21 23 23 22 23 22 24 26
14 26 26 19 19 19 18 5 5 4 1 7 1 8 12 14 12 12 9 10 11 11 12 13 16 20 19 17 15 16 19 19 19 22 22 24 25 27 26 26 25 26 26 27
13 3 14 21 19 11 8 6 6 3 2 2 3 8 8 18 12 14 10 9 9 10 12 13 12 10 10 13 14 15 18 20 20 22 22 23 25 25 25 26 30 27 25 27
15 14 3 8 7 12 14 7 5 4 2 14 12 15 9 13 18 16 9 8 8 7 8 10 10 9 11 13 15 19 20 22 22 22 24 25 27 28 28 28 28 26 26 24
18 26 14 9 6 4 10 11 4 5 7 13 11 16 19 9 18 17 14 7 6 6 9 7 9 9 15 21 23 22 22 24 24 25 26 26 27 29 28 30 28 30 27 26
18 12 23 13 17 11 14 16 11 9 9 4 4 9 5 14 17 13 10 9 5 6 8 6 5 12 18 21 21 20 21 23 24 26 28 26 25 25 25 27 30 30 30 29
12 11 9 15 10 21 8 15 10 1 3 2 4 3 5 14 14 12 9 7 5 5 4 5 10 16 16 19 20 19 18 20 23 26 26 27 26 28 28 33 31 29 31 30
9 6 2 3 9 4 10 12 7 6 7 11 9 10 8 21 17 11 7 5 4 4 7 10 12 13 10 12 15 17 17 20 22 24 24 25 27 28 28 28 30 31 33 32
17 4 1 5 5 14 8 8 6 7 6 6 5 7 4 21 16 12 5 4 6 10 12 11 9 11 11 13 14 18 19 21 23 24 25 27 26 28 26 26 29 30 30 29
18 12 23 12 7 11 16 15 15 10 5 6 4 7 10 14 14 11 6 3 6 9 4 5 11 15 15 15 17 19 20 20 22 23 25 26 26 28 28 27 30 29 29 28
13 6 13 8 4 3 6 8 9 4 3 11 11 7 10 13 11 8 5 3 2 2 3 6 11 15 13 15 16 17 18 18 21 23 25 28 28 29 28 29 29 29 28 27
16 8 17 31 4 5 11 9 14 11 17 17 22 7 14 13 12 8 5 3 2 3 4 6 12 16 13 12 13 15 17 19 21 22 23 27 29 29 28 28 29 28 27 27
2 16 8 4 8 3 4 12 14 22 25 20 19 17 20 18 14 10 5 3 3 4 7 10 15 15 10 11 12 16 16 20 22 22 23 24 28 28 28 27 28 27 28 26
7 5 3 13 8 8 16 22 26 19 20 17 15 14 15 13 13 10 7 3 1 4 8 10 13 9 9 13 17 17 15 20 21 22 23 23 26 28 28 28 28 27 26 27
15 13 8 19 15 12 14 35 28 17 12 13 23 10 23 20 17 13 10 6 4 6 9 10 10 11 12 14 15 17 17 18 20 20 21 22 25 26 28 27 26 27 27 26
11 11 6 4 11 13 13 13 29 27 13 14 7 24 25 20 14 12 8 7 8 9 9 9 11 12 12 13 15 13 17 18 20 21 21 22 23 24 26 26 26 26 24 23
9 9 6 8 13 11 12 9 12 18 11 4 19 17 19 20 14 5 2 9 12 12 11 12 13 12 12 14 15 16 18 18 21 22 22 23 22 22 24 27 26 24 24 24
10 15 12 7 7 12 5 11 4 5 13 10 19 22 26 18 9 3 3 13 14 14 13 12 12 11 14 14 15 16 18 19 21 22 22 22 21 20 22 23 23 22 21 20
12 8 18 11 8 8 7 1 8 16 6 16 18 18 18 8 6 8 15 14 14 13 14 12 12 12 15 15 15 17 17 20 21 20 20 21 21 19 20 21 21 22 21 21
18 16 10 9 8 17 4 1 10 10 15 21 17 19 23 18 16 17 15 15 15 14 14 13 12 13 15 16 14 15 18 19 20 19 19 20 21 20 16 19 20 21 23 23
11 11 11 13 9 1 3 8 15 19 25 14 22 18 21 17 14 15 15 14 14 12 12 11 12 12 14 15 15 16 18 19 19 18 18 19 20 19 17 18 20 21 22 22
4 10 5 7 4 13 22 19 17 19 21 18 20 19 18 17 16 16 13 12 11 12 12 11 14 14 15 16 16 16 17 18 18 16 17 18 18 21 19 12 16 18 22 22
7 13 11 7 12 18 17 23 23 21 22 23 18 18 18 19 15 14 12 12 11 10 10 12 13 13 15 15 16 16 17 18 17 15 15 17 15 18 18 17 16 17 18 24
5 12 15 7 22 9 18 23 24 25 22 21 24 19 16 18 16 16 14 12 10 10 10 12 12 12 14 15 15 17 17 17 15 14 14 15 15 16 16 15 17 18 21 26
Wind_Direction
197 208 227 229 223 240 275 286 279 283 194 171 192 212 248 259 120 131 120 109 101 87 89 57 54 52 35 25 12 5 356 349 349 345 340 332 324 318 309 306 301 299 293 289
228 239 238 241 244 248 259 256 253 321 113 159 190 229 257 294 150 145 131 105 89 75 55 43 39 31 26 17 3 354 352 345 343 338 329 322 316 310 306 302 300 299 296 291
218 231 232 234 253 246 238 219 217 226 113 304 207 260 252 55 108 110 96 98 78 62 48 39 33 28 24 15 357 352 348 338 339 336 324 321 312 311 311 307 305 301 297 292
243 246 248 257 235 214 223 195 172 124 169 226 142 267 250 145 127 114 107 87 74 58 48 35 25 20 13 360 341 342 348 339 337 335 329 324 313 307 305 302 300 297 293 287
218 234 225 232 233 196 221 166 152 143 140 326 216 270 242 140 160 152 145 113 89 73 48 35 41 22 3 340 346 346 345 339 335 334 327 318 308 304 301 301 298 294 287 282
236 258 240 229 205 206 147 107 51 47 91 259 211 229 240 200 187 156 146 116 86 73 56 46 36 15 348 346 357 357 347 337 335 330 325 319 311 307 306 301 297 294 292 283
243 246 252 201 138 102 141 137 236 258 209 242 219 215 246 114 133 148 149 125 94 73 46 54 26 7 352 5 3 353 341 335 331 330 331 321 315 312 311 310 301 299 291 282
218 262 219 194 197 173 183 185 190 222 212 225 203 231 237 118 128 133 137 122 91 69 39 48 28 15 12 6 357 340 333 328 333 333 326 320 315 314 312 309 300 297 289 283
203 236 244 197 161 172 193 210 190 269 269 290 212 102 101 139 143 146 140 127 95 80 59 45 30 17 9 5 350 328 318 327 334 332 325 321 318 318 316 316 305 300 297 291
210 270 320 172 140 124 173 153 164 199 214 234 233 206 220 175 167 159 153 134 125 59 42 29 27 7 2 0 339 329 327 329 329 326 327 320 318 317 316 314 309 307 304 301
202 170 341 143 204 177 162 187 197 193 203 209 202 232 237 168 163 159 149 56 56 27 29 17 359 360 11 3 342 339 337 329 331 328 330 325 322 320 319 318 315 311 313 315
200 202 232 202 210 205 210 210 193 197 203 241 252 247 123 137 147 147 143 65 60 34 33 360 4 5 15 5 355 344 331 328 333 329 331 329 327 328 327 327 324 324 328 328
169 209 231 223 193 239 223 212 205 187 129 236 223 233 145 147 149 150 117 63 89 47 41 11 10 12 20 7 353 336 329 331 335 335 337 335 334 334 331 331 331 333 335 332
154 151 219 232 219 178 204 214 226 219 240 244 244 189 184 177 171 159 153 151 92 53 38 26 15 17 23 2 336 332 336 343 339 340 340 338 337 336 334 333 335 336 339 341
98 199 202 179 148 88 319 312 279 223 229 223 235 220 196 188 187 178 172 134 31 29 28 34 19 16 19 353 347 350 343 346 343 344 345 341 337 339 336 338 336 343 344 348
318 258 155 232 228 239 245 239 258 261 236 247 249 212 179 163 150 163 167 138 38 39 40 34 18 32 20 7 3 353 350 347 344 341 341 345 344 341 341 339 340 343 349 349
186 188 215 250 256 264 261 241 234 252 227 218 230 197 164 162 170 169 162 154 120 67 58 35 19 46 23 11 0 355 354 345 344 339 342 344 347 343 346 340 342 346 347 346
192 183 143 241 126 218 251 210 206 218 226 183 148 154 165 159 142 135 152 127 105 82 66 43 40 45 27 13 3 359 355 350 346 345 346 347 347 347 346 346 345 346 345 349
158 146 159 195 210 297 293 234 200 196 202 182 160 145 137 129 118 97 93 77 93 84 63 49 52 47 29 17 5 5 358 352 350 350 348 348 348 351 350 351 346 345 347 349
130 135 183 170 213 227 251 258 244 129 210 141 153 147 151 159 180 152 46 99 83 72 57 50 51 46 32 17 13 6 356 355 354 350 347 345 346 353 353 354 349 347 351 351
153 160 204 199 224 262 247 232 152 210 205 126 137 141 148 146 118 129 105 90 82 70 55 45 42 38 26 14 16 6 354 356 344 345 347 346 347 351 354 353 356 356 357 1
179 174 189 194 229 256 254 228 193 136 115 121 116 114 107 104 98 100 96 85 72 57 47 41 34 29 20 10 10 3 357 345 340 344 347 347 349 350 355 355 356 3 8 9
185 183 175 187 213 178 44 119 120 132 121 124 118 115 112 103 97 102 92 79 68 58 46 40 34 23 14 5 8 0 349 345 341 346 347 347 347 351 355 358 357 3 9 14
135 150 145 141 97 113 108 96 112 113 116 116 117 117 115 110 100 92 86 73 62 46 34 33 25 21 11 5 358 355 350 347 340 350 347 348 351 354 357 355 357 7 10 12
173 151 139 90 104 94 106 108 113 113 112 110 108 111 110 106 99 102 87 73 58 43 34 40 28 18 8 355 352 352 353 352 344 354 353 354 353 356 359 4 13 15 13 18
186 169 169 189 165 133 143 127 127 123 119 116 111 98 95 109 111 102 90 80 64 53 43 40 28 18 2 356 354 354 349 351 355 1 2 5 2 358 3 7 11 10 16 20